This is the latest recevied weather packets stored in our database for station/object KK4MOR. If no packets are shown the sender has not sent any weather packets the latest 10 day(s).
| Time | Temp. | Humidity | Pressure | Rain* | Wind** | Luminosity | Snow |
|---|---|---|---|---|---|---|---|
| 1778127332 | 11.67° C | 97% | 1012.3 hPa | 0 mm | - | - | - |
| 1778126432 | 11.67° C | 97% | 1011.7 hPa | 0 mm | - | - | - |
| 1778125530 | 11.67° C | 97% | 1011.4 hPa | 0 mm | - | - | - |
| 1778124629 | 12.22° C | 97% | 1011.7 hPa | 0 mm | - | - | - |
| 1778123729 | 12.22° C | 97% | 1011.7 hPa | 0 mm | - | - | - |
| 1778122828 | 12.22° C | 97% | 1011.2 hPa | 0 mm | - | - | - |
| 1778121926 | 12.22° C | 97% | 1010.9 hPa | 0 mm | - | - | - |
| 1778121028 | 12.22° C | 97% | 1010.6 hPa | 0 mm | - | - | - |
| 1778120126 | 12.22° C | 97% | 1011.5 hPa | 0 mm | - | - | - |
| 1778119226 | 12.22° C | 97% | 1011.1 hPa | 0.51 mm | - | - | - |
| 1778118336 | 12.22° C | 97% | 1011.5 hPa | 0.51 mm | - | - | - |
| 1778117423 | 12.22° C | 97% | 1010.7 hPa | 0.51 mm | - | - | - |
| 1778116523 | 12.22° C | 97% | 1010.3 hPa | 0.51 mm | - | - | - |
| 1778115622 | 12.22° C | 97% | 1010.9 hPa | 0 mm | - | - | - |
| 1778114724 | 12.22° C | 97% | 1010.8 hPa | 0 mm | - | - | - |
| 1778113821 | 12.22° C | 97% | 1010.9 hPa | 0 mm | - | - | - |
| 1778112925 | 12.22° C | 97% | 1010.4 hPa | 0 mm | - | - | - |
| 1778112031 | 12.22° C | 97% | 1011.1 hPa | 0.25 mm | - | - | - |
| 1778111118 | 12.22° C | 97% | 1010 hPa | 0.25 mm | - | - | - |
| 1778110217 | 12.22° C | 97% | 1009.6 hPa | 0.25 mm | - | - | - |
| 1778109315 | 12.22° C | 97% | 1011.9 hPa | 1.27 mm | - | - | - |
| 1778108413 | 12.22° C | 97% | 1010.6 hPa | 1.78 mm | - | - | - |
| 1778107572 | 12.22° C | 97% | 1010.2 hPa | 2.54 mm | - | - | - |
| 1778106612 | 12.22° C | 97% | 1009.9 hPa | 2.54 mm | - | - | - |
| 1778105710 | 12.78° C | 97% | 1010.9 hPa | 1.52 mm | - | - | - |
* Rain latest hour (hover to see other rain measurements)
** Current wind speed in m/s (hover to see current wind gust speed)